Preview of NWS' New Version of Forecast
This preview is not operational and should not be used for support decisions.

Regional Weather Roundup (RWR)

Issued by National Weather Service (NWS)

                            
000
ASUS43 KTOP 191159
RWRKS 

WEATHER ROUNDUP FOR KANSAS
NATIONAL WEATHER SERVICE GOODLAND KS
600 AM CST TUE FEB 19 2019

NOTE:  "FAIR" INDICATES FEW OR NO CLOUDS BELOW 12,000 FEET WITH NO
SIGNIFICANT WEATHER AND/OR OBSTRUCTIONS TO VISIBILITY.

KSZ001>006-013>018-027>032-041>047-191300-
NORTHWEST KANSAS
  
CITY           SKY/WX    TMP DP  RH WIND       PRES   REMARKS
GOODLAND       CLOUDY    13  11  92 SE14      30.14S WCI  -2          
6HR MIN TEMP:  13; 6HR MAX TEMP:  14; 6HR PCP: TRACE;                

HAYS           CLOUDY    14  13  95 NE9       30.34S                  
HILL CITY      CLOUDY    13  11  92 E7        30.34F                  
6HR MIN TEMP:   7; 6HR MAX TEMP:  13;                                

RUSSELL        CLOUDY    15  14  95 NE9       30.33F                  
6HR MIN TEMP:  12; 6HR MAX TEMP:  15;                                

$$

KSZ061>065-074>080-084>089-191300-
SOUTHWEST KANSAS
  
CITY           SKY/WX    TMP DP  RH WIND       PRES   REMARKS
DODGE CITY     CLOUDY    18  14  84 E9        30.26S                  
6HR MIN TEMP:  16; 6HR MAX TEMP:  18;                                

GARDEN CITY    CLOUDY    14  12  92 E12       30.23S WCI   0          
6HR MIN TEMP:  12; 6HR MAX TEMP:  14;                                

GREAT BEND     CLOUDY    18  15  88 E12       30.33R WCI   5          
$$

KSZ066>073-081>083-090>101-191300-
SOUTHEAST KANSAS
  
CITY           SKY/WX    TMP DP  RH WIND       PRES   REMARKS
CHANUTE        MOCLDY    26  17  68 E12       30.41F WCI  16          
6HR MIN TEMP:  25; 6HR MAX TEMP:  27;                                

COFFEYVILLE    MOCLDY    27  20  75 NE10      30.39F WCI  17          
6HR MIN TEMP:  27; 6HR MAX TEMP:  27;                                

HUTCHINSON     CLOUDY    21  18  88 E10       30.34F WCI  10          
6HR MIN TEMP:  21; 6HR MAX TEMP:  22;                                

MEDICINE LODGE   N/A     24  16  71 E10       30.30F WCI  14          
NEWTON         CLOUDY    20  17  88 E9        30.37R                  
PARSONS        CLOUDY    26  20  77 E7        30.40F                  
6HR MIN TEMP:  26; 6HR MAX TEMP:  26;                                

WICHITA INTL   CLOUDY    24  18  77 E13       30.36S WCI  12          
6HR MIN TEMP:  24; 6HR MAX TEMP:  26;                                

WICHITA JABRA  CLOUDY    22  17  81 E10       30.36S WCI  11          
6HR MIN TEMP:  22; 6HR MAX TEMP:  24;                                

WICHITA MCCONL CLOUDY    23  17  79 E8        30.35F                  
WINFIELD       CLOUDY    25  18  74 E8        30.37S                  
6HR MIN TEMP:  24; 6HR MAX TEMP:  26;                                

$$

KSZ007>012-019>026-033>040-048>060-102>105-191300-
NORTHEAST KANSAS
  
CITY           SKY/WX    TMP DP  RH WIND       PRES   REMARKS
CONCORDIA      CLOUDY    12   9  87 E5        30.42S                  
6HR MIN TEMP:  10; 6HR MAX TEMP:  12;                                

EMPORIA        CLOUDY    21  17  84 E10       30.41S WCI  10          
6HR MIN TEMP:  20; 6HR MAX TEMP:  21;                                

LAWRENCE       CLOUDY    20  14  77 NE5       30.50R                  
6HR MIN TEMP:  19; 6HR MAX TEMP:  21;                                

MANHATTAN      CLOUDY    17  13  84 NE7       30.46F                  
6HR MIN TEMP:  16; 6HR MAX TEMP:  18;                                

OLATHE IND     CLOUDY    21  16  81 E6        30.47S                  
6HR MIN TEMP:  20; 6HR MAX TEMP:  22;                                

OLATHE EXE     CLOUDY    21  16  81 E7        30.46F                  
6HR MIN TEMP:  19; 6HR MAX TEMP:  21;                                

SALINA         CLOUDY    18  15  88 E8        30.42R                  
6HR MIN TEMP:  18; 6HR MAX TEMP:  19;                                

TOPEKA BILLARD CLOUDY    19  13  77 NE6       30.49R                  
6HR MIN TEMP:  17; 6HR MAX TEMP:  19;                                

TOPEKA FORBES  CLOUDY    19  14  81 NE5       30.46R                  
6HR MIN TEMP:  15; 6HR MAX TEMP:  19;                                

$$